FW5647 Weather Reports


time (UTC)temp
C
wind
direction
speed
KPH
gust
KPH
rain 1hr
cm
rain 24hr
cm
rain mn
cm
humidity
%
barometer
mb
20260902064537 23 221 0.0 6.4 0.00 0.00 0.00 95 1014.6
20260902063052 23 0 0.0 3.2 0.00 0.00 0.00 95 1014.6
20260902061539 22 0 0.0 0.0 0.00 0.00 0.00 95 1014.8
20260902060041 22 0 0.0 0.0 0.00 0.00 0.00 95 1015.0
20260902054545 22 0 0.0 0.0 0.00 0.00 0.00 94 1015.2
20260902053043 22 0 0.0 0.0 0.00 0.00 0.00 94 1015.3
20260902051545 22 0 0.0 0.0 0.00 0.00 0.00 94 1015.2
20260902050057 22 0 0.0 0.0 0.00 0.00 0.00 94 1015.3
20260902044539 22 0 0.0 0.0 0.00 0.00 0.00 93 1015.5
20260902043044 22 0 0.0 0.0 0.00 0.00 0.00 93 1015.4
20260902041540 22 0 0.0 0.0 0.00 0.00 0.00 93 1015.4
20260902040042 22 0 0.0 1.6 0.00 0.00 0.00 93 1015.3
20260902034541 22 0 0.0 0.0 0.00 0.00 0.00 93 1015.3
20260902033037 22 0 0.0 0.0 0.00 0.00 0.00 93 1015.4
20260902031541 22 230 0.0 0.0 0.00 0.00 0.00 92 1015.0
20260902030039 22 0 0.0 0.0 0.00 0.00 0.00 91 1015.0
20260902024555 23 0 0.0 0.0 0.00 0.00 0.00 91 1015.0
20260902023042 23 0 0.0 0.0 0.00 0.00 0.00 90 1014.8
20260902021539 23 0 0.0 0.0 0.00 0.00 0.00 90 1014.7
20260902020053 23 0 0.0 0.0 0.00 0.00 0.00 90 1014.9
20260902014546 23 0 0.0 0.0 0.00 0.00 0.00 89 1015.1
20260902013043 24 0 0.0 0.0 0.00 0.00 0.00 88 1015.2
20260902011541 24 0 0.0 0.0 0.00 0.00 0.00 87 1015.3
20260902010046 25 0 0.0 4.8 0.00 0.00 0.00 86 1015.2
20260902004548 25 0 0.0 1.6 0.00 0.00 0.00 85 1015.1
20260902003044 25 0 0.0 0.0 0.00 0.00 0.00 83 1014.9
20260902001545 26 0 0.0 4.8 0.00 0.00 0.00 80 1014.6
20260902000044 26 252 0.0 8.0 0.00 0.00 0.00 79 1014.9
20260901234553 27 259 3.2 14.5 0.00 0.00 0.00 77 1015.0
20260901233043 27 291 4.8 9.7 0.00 0.00 0.00 76 1015.1
20260901231540 28 244 1.6 14.5 0.00 0.00 0.00 74 1015.1
20260901224541 29 276 6.4 22.5 0.00 0.05 0.00 71 1015.0
20260901223101 30 240 6.4 19.3 0.00 0.05 0.00 71 1014.7
20260901221542 30 295 6.4 16.1 0.00 0.05 0.00 72 1014.6
20260901220106 30 191 8.0 17.7 0.00 0.05 0.00 71 1014.5
20260901214542 31 281 3.2 12.9 0.00 0.18 0.00 70 1014.4
20260901213050 31 236 6.4 16.1 0.00 0.18 0.00 69 1014.2
20260901211540 31 194 4.8 12.9 0.00 0.18 0.00 71 1014.2
20260901210040 31 206 4.8 16.1 0.00 0.18 0.00 71 1014.4
20260901204546 31 257 8.0 20.9 0.00 0.41 0.00 71 1014.6
20260901203044 31 222 6.4 16.1 0.00 0.41 0.00 72 1014.7
20260901201550 31 253 9.7 20.9 0.00 0.41 0.00 71 1014.6
20260901200047 31 237 4.8 16.1 0.00 0.41 0.00 72 1014.7
20260901194547 31 251 9.7 17.7 0.00 0.41 0.00 70 1014.9
20260901193042 31 255 8.0 20.9 0.00 0.41 0.00 70 1014.9
20260901191602 31 310 3.2 19.3 0.00 0.41 0.00 70 1014.8
20260901190046 31 248 6.4 14.5 0.00 0.41 0.00 72 1015.0
20260901184607 31 255 8.0 17.7 0.00 0.41 0.00 69 1015.1
20260901183049 31 141 4.8 12.9 0.00 0.41 0.00 71 1015.0
20260901181553 31 295 4.8 12.9 0.00 0.41 0.00 70 1014.9
20260901180041 31 248 4.8 14.5 0.00 0.41 0.00 71 1014.8
20260901174555 31 248 1.6 11.3 0.00 0.41 0.00 70 1014.9
20260901173045 31 256 6.4 12.9 0.00 0.41 0.00 70 1015.0
20260901171550 30 264 4.8 9.7 0.00 0.41 0.00 70 1015.1
20260901170048 30 276 6.4 11.3 0.00 0.41 0.00 72 1015.3
20260901164542 30 146 3.2 11.3 0.00 0.41 0.00 73 1015.4
20260901163043 30 226 3.2 8.0 0.00 0.41 0.00 72 1015.4
20260901161600 29 299 4.8 9.7 0.00 0.41 0.00 75 1015.6
20260901160059 28 288 1.6 9.7 0.00 0.41 0.00 75 1015.8
20260901154547 28 268 3.2 6.4 0.00 0.41 0.00 76 1015.7
20260901153048 28 234 3.2 8.0 0.00 0.41 0.00 76 1015.6
20260901151540 28 146 3.2 6.4 0.00 0.41 0.00 78 1015.7
20260901150040 27 261 1.6 4.8 0.00 0.41 0.00 81 1015.9
20260901144541 27 152 0.0 3.2 0.00 0.41 0.00 81 1015.9
20260901143056 26 303 0.0 3.2 0.00 0.41 0.00 82 1015.9
20260901141629 26 0 0.0 6.4 0.00 0.41 0.00 82 1016.0
20260901140043 25 0 0.0 6.4 0.00 0.41 0.00 84 1015.8
20260901134539 25 247 0.0 6.4 0.00 0.41 0.00 85 1015.8
20260901133043 25 295 3.2 8.0 0.00 0.41 0.00 85 1015.7
20260901131541 23 262 1.6 4.8 0.00 0.41 0.00 87 1015.3
20260901130046 23 0 0.0 8.0 0.00 0.41 0.00 87 1015.4
20260901124542 23 230 1.6 8.0 0.00 0.41 0.00 89 1015.6
20260901123048 22 223 0.0 6.4 0.00 0.41 0.00 91 1015.4
20260901121544 22 274 0.0 6.4 0.00 0.41 0.00 93 1015.7
20260901120056 21 0 0.0 3.2 0.00 0.41 0.00 94 1015.6
20260901114550 21 266 1.6 4.8 0.00 0.41 0.00 95 1015.3
20260901113042 21 276 0.0 0.0 0.00 0.41 0.00 94 1015.2
20260901111549 21 0 0.0 0.0 0.00 0.41 0.00 93 1015.0
20260901110043 21 0 0.0 1.6 0.00 0.41 0.00 93 1015.1
20260901104543 21 248 0.0 1.6 0.00 0.41 0.00 93 1015.0
20260901103043 21 0 0.0 4.8 0.00 0.41 0.00 92 1014.9
20260901101540 21 0 0.0 3.2 0.00 0.41 0.00 93 1014.9
20260901100047 21 257 0.0 6.4 0.00 0.41 0.00 93 1014.9
20260901094540 21 0 0.0 1.6 0.00 0.41 0.00 93 1015.0
20260901093043 21 0 0.0 3.2 0.00 0.41 0.00 93 1015.0
20260901091540 21 0 0.0 1.6 0.00 0.41 0.00 93 1014.7
20260901090037 21 233 0.0 3.2 0.00 0.41 0.00 94 1014.6
20260901084537 21 0 0.0 3.2 0.00 0.41 0.00 94 1014.7
20260901083041 21 0 0.0 1.6 0.00 0.41 0.00 94 1014.6
20260901081541 21 0 0.0 1.6 0.00 0.41 0.00 94 1014.7
20260901080042 21 0 0.0 0.0 0.00 0.41 0.00 94 1014.6
20260901074540 21 0 0.0 0.0 0.00 0.41 0.00 93 1014.6
20260901073039 22 0 0.0 0.0 0.00 0.41 0.00 93 1014.7
20260901071541 22 0 0.0 1.6 0.00 0.41 0.00 93 1014.7
20260901070051 22 0 0.0 0.0 0.00 0.41 0.00 93 1014.6